STARLINK-4600, 53628

Orbit data source: Space-Track

STARLINK-4600, 53628 is a payload satellite owned by SpaceX/Seattle (US) in LEO that was launched on Sun, 28 Aug 2022 UTC via an FALCON 9 launch vehicle from the Air Force Eastern Test Range (AFETR). Payload-class satellites include a variety of spacecraft equipped with specific instruments for various scientific and technological missions. These include communications satellites like Starlink; space stations such as the ISS; scientific satellites like the Hubble; Earth observation satellites from companies like Planet Labs, Umbra, and HawkEye 360; GPS; miniature CubeSats for education and research; and military/defense satellites.

Loading next visibility...
Identifier
53628, 2022-104AS
Orbit
LEO
Country
Flag of USUS
Related business
Manufacturer
SpaceX/Seattle
Mission
Operational Commercial Communications
Bus & Motor
STARLINK, Unknown motor
Mass
300 kg wet, ~290 kg dry
Launch date (UTC)
2022-08-28 (3 years ago)
Launch vehicle
FALCON 9
Launch site
Air Force Eastern Test Range (AFETR)
Object type
Payload
Rocket body
Debris
Shape & HBR
Box + 1 Pan, 10.1 m
Radar Cross Section
13.562 m², Large (>1 m²)

Expand to show TLE details & history
Last TLE update: 16 hours ago

TLE from 16 hours ago
0 STARLINK-4600
1 53628U 22104AS  26036.64570119  .00000431  00000-0  45177-4 0  9999
2 53628  53.2184  17.5345 0001351  94.2850 265.8296 15.08834722190921
Epoch: 2026-02-05T15:29Z
TLE epoch observation values (Epoch: 2026-02-05T15:29:48.582Z)
Latitude
-0.00008°
Longitude
9.28706°
Altitude
540.725 km
Speed
7.593 km/s
True Right ascension
01h 10m 08s
True Declination
0° 00' 00"
Sunlit
Object was in daylight at epoch
Visualization orbit readout
Latitude
Unknown
Longitude
Unknown
Altitude
Unknown
Speed
Unknown
Apparent Right ascension
Unknown
Apparent Declination
Unknown
Sunlit
N/A
Visualization observer readout
Local Sidereal Time
09:05:41
Azimuth
Unknown
Elevation
Unknown
Doppler factor
Unknown
Orbital elements
Apogee altitude
540.939 km
Perigee altitude
539.07 km
Semi-major axis
6,918.141 km
Eccentricity
0.00014
Inclination
53.2184°
RAAN
17.5345°
Arg. of periapsis
94.285°
True anomaly
265.81416°
Mean anomaly
265.8296°
Eccentric anomaly
265.82188°
Mean motion
3.77189 °/min
Orbital period
95.44 mins
BSTAR
0.000045177
Loading maneuver chart data...
Computing Atmospheric mass density...
Loading historical data...
Loading historical data...
Loading historical data...
Loading historical data...
Loading historical data...
Loading historical data...
Loading historical data...

Documentation

Showing up to 5 results
|